SCP
0 0 0 0 0 1 1 1 1 1 0 0 0 0 0 0 0 0 0 0 0 0 0 0 0 0 0 0 0 0 0 0 0 0 0 0 0 0 0 0 0 0 0
0 0 0 0 0 1 1 1 1 1 1 0 0 0 0 0 0 0 0 0 0 0 0 0 0 0 0 0 0 0 0 0 0 0 0 0 0 0 0 0 0 0 0
0 0 0 0 0 1 1 1 1 1 1 1 0 0 0 0 0 0 0 0 0 0 0 0 0 0 0 0 1 1 1 0 0 0 0 0 0 0 0 0 0 0 0
0 0 0 1 1 1 1 1 1 1 1 1 1 0 0 0 0 0 0 0 0 0 0 0 0 0 0 0 1 1 1 1 0 0 0 0 0 0 0 0 0 0 0
0 0 1 1 1 1 1 1 1 1 1 1 1 1 0 0 0 0 0 0 0 0 0 1 1 1 0 0 1 1 1 1 0 0 0 0 0 0 0 0 0 0 0
0 0 1 1 1 1 1 1 1 1 1 1 1 1 1 1 0 0 0 0 0 1 1 1 1 1 1 1 1 1 1 1 1 0 0 0 0 0 0 0 0 0 0
0 1 1 1 1 1 1 1 1 1 1 1 1 1 1 1 1 0 0 0 1 1 1 1 1 1 1 1 1 1 1 1 1 0 0 0 0 0 0 0 0 0 0
1 1 1 1 1 1 1 1 1 1 1 1 1 1 1 1 1 1 1 1 1 1 1 1 1 1 1 1 1 1 1 1 1 1 1 0 0 0 0 0 0 0 0
1 1 1 1 1 1 1 1 1 1 1 1 1 1 1 1 1 1 1 1 1 1 1 1 1 1 1 1 1 1 1 1 1 1 1 1 0 0 0 0 0 0 0
1 1 1 1 1 1 1 1 1 1 1 1 1 1 1 1 1 1 1 1 1 1 1 1 1 1 1 1 1 1 1 1 1 1 1 1 1 0 0 0 0 0 0
1 1 1 1 1 1 1 1 1 1 1 1 1 1 1 1 1 1 1 1 1 1 1 1 1 1 1 1 1 1 1 1 1 1 1 1 1 1 0 0 0 0 0
1 1 1 1 1 1 1 1 1 1 1 1 1 1 1 1 1 1 1 1 1 1 1 1 1 1 1 1 1 1 1 1 1 1 1 1 1 1 1 1 0 0 0
1 1 1 1 1 1 1 1 1 1 1 1 1 1 1 1 1 1 1 1 1 1 1 1 1 1 1 1 1 1 1 1 1 1 1 1 1 1 1 1 0 0 0
1 1 1 1 1 1 1 1 1 1 1 1 1 1 1 1 1 1 1 1 1 1 1 1 1 1 1 1 1 1 1 1 1 1 1 1 1 1 1 1 1 0 0
1 2 2 2 2 2 2 2 2 2 1 1 1 1 1 1 1 1 1 1 1 1 1 1 1 1 1 1 1 1 1 1 1 1 1 1 1 1 0 0 0 0 0
2 2 2 2 2 2 2 2 2 2 2 1 1 1 1 1 1 1 1 1 1 1 1 1 1 1 1 0 0 0 0 1 1 1 1 1 1 0 0 0 0 0 0
2 2 2 2 2 2 2 2 2 2 2 2 1 1 1 1 1 1 1 1 1 1 1 1 1 1 0 0 0 0 0 0 1 1 1 1 0 0 0 0 0 0 0
2 2 2 2 2 2 3 3 2 2 2 2 2 1 1 1 1 1 1 1 1 1 1 1 1 1 0 0 0 0 0 0 0 1 1 1 0 0 0 0 0 0 0
2 2 2 2 2 3 3 3 3 2 2 2 2 2 1 1 1 1 1 1 1 1 1 1 1 1 0 0 0 0 0 0 0 0 0 0 0 0 0 0 0 0 0
2 2 2 2 2 3 3 3 3 2 2 2 2 1 1 1 1 1 1 1 1 1 1 1 1 1 0 0 0 0 0 0 0 0 0 0 0 0 0 0 0 0 0
2 2 2 2 2 3 3 3 3 2 2 2 2 2 1 1 1 1 1 1 1 1 1 1 1 1 1 0 0 0 0 0 0 0 0 0 0 0 0 0 0 0 0
2 2 2 2 2 3 3 3 2 2 2 2 2 2 1 1 1 1 1 1 1 1 1 1 1 1 1 0 0 0 0 0 0 0 0 0 0 0 0 0 0 0 0
2 2 2 2 3 3 3 3 2 2 2 2 2 2 2 1 1 1 1 1 1 1 1 1 1 1 1 0 0 0 0 0 0 0 0 0 0 0 0 0 0 0 0
2 2 2 2 2 2 2 2 2 2 2 2 2 2 2 1 1 1 1 1 1 1 1 1 1 1 1 0 0 0 0 0 0 0 0 0 0 0 0 0 0 0 0
2 2 2 2 2 2 2 2 2 2 2 2 2 1 1 1 1 1 1 1 1 1 1 1 1 1 0 0 0 0 0 0 0 0 0 0 0 0 0 0 0 0 0
2 2 2 2 2 2 2 2 2 2 2 2 2 1 1 1 1 1 1 1 0 0 0 0 0 0 0 0 0 0 0 0 0 0 0 0 0 0 0 0 0 0 0
Wind_Speed
11 10 9 10 9 8 7 6 5 4 2 2 2 2 2 2 2 3 3 3 3 3 2 1 2 2 2 2 1 1 2 1 2 2 1 1 1 2 2 2 2 2 2
11 11 10 10 10 9 8 7 5 5 4 2 1 1 2 2 2 3 3 3 2 2 2 2 1 2 2 2 1 1 1 1 2 2 2 1 1 1 1 2 2 2 2
11 11 10 10 10 10 9 8 6 5 4 3 2 2 2 1 2 3 2 2 2 2 2 2 1 1 1 1 1 1 1 1 1 1 1 1 1 1 1 1 2 2 2
12 11 10 9 10 11 10 8 7 6 4 3 2 3 3 3 3 2 2 3 2 2 2 2 1 1 1 1 1 1 1 1 1 1 1 0 1 2 1 1 2 2 2
13 12 11 10 9 10 10 9 8 6 5 4 3 2 2 2 2 2 3 2 2 1 2 2 2 1 1 1 0 1 1 0 1 1 0 0 1 1 2 2 1 1 1
13 13 12 10 9 9 10 9 8 7 6 5 4 3 2 2 2 2 2 2 2 2 2 3 2 2 1 1 1 1 1 1 0 1 1 0 0 1 2 2 2 1 1
13 13 13 12 10 9 9 9 9 7 6 6 4 4 3 3 2 2 2 2 1 2 2 2 2 1 1 2 2 2 1 1 1 1 1 0 0 0 1 2 2 2 1
12 12 13 12 11 10 9 10 10 8 7 6 5 4 4 3 2 2 1 1 1 1 2 3 2 2 1 1 1 1 2 1 1 1 1 0 0 0 1 1 2 2 1
12 12 13 12 12 11 9 10 10 9 8 7 6 4 4 2 2 2 2 1 1 2 2 2 2 2 1 1 1 1 1 1 1 1 1 1 1 1 1 1 1 2 2
11 11 11 11 11 10 9 9 10 9 8 7 6 6 5 4 3 2 2 2 1 2 2 1 1 1 1 1 1 1 1 1 1 1 1 1 0 0 0 0 0 0 1
10 11 10 11 11 11 11 10 10 9 8 7 6 5 5 5 4 3 2 2 2 2 2 1 1 1 1 1 1 2 1 1 1 0 1 1 0 0 0 0 0 0 1
9 10 10 10 10 10 11 10 10 9 8 7 6 6 5 5 5 4 3 3 3 2 2 2 1 1 2 1 1 1 1 1 1 1 1 0 0 0 0 0 0 0 1
9 9 8 8 8 8 8 9 9 9 9 8 7 7 6 5 4 4 3 3 2 2 2 2 2 2 2 1 1 1 1 1 1 1 1 0 1 1 0 0 0 0 0
8 8 7 6 7 7 7 7 8 9 8 8 8 6 6 5 5 4 4 3 2 2 2 2 2 2 2 1 1 1 0 1 1 1 1 1 1 1 1 0 0 0 0
7 8 7 6 6 7 7 7 7 7 8 7 6 6 6 5 4 4 4 4 3 3 2 2 2 2 2 1 1 1 1 1 1 1 2 2 3 3 2 1 1 1 0
7 7 7 6 6 7 7 7 7 7 7 7 7 6 6 6 5 4 4 4 3 3 2 2 2 2 2 3 4 3 1 1 1 1 1 2 3 4 4 4 3 2 0
7 6 6 6 5 6 7 7 7 7 7 7 7 6 6 6 5 5 5 4 3 3 2 2 3 4 3 4 4 4 1 0 1 1 1 0 2 2 1 1 1 1 0
6 5 5 5 6 6 7 7 8 7 7 7 7 7 6 5 5 5 4 4 3 3 2 2 3 3 2 2 2 4 2 1 1 1 1 1 1 1 1 0 1 0 1
4 4 4 4 4 5 7 8 8 7 7 7 7 7 6 6 5 5 4 4 3 3 3 3 3 3 3 1 1 2 1 1 1 1 1 2 2 2 2 0 1 0 1
4 3 4 4 4 4 6 7 7 7 7 6 6 6 6 6 5 5 4 4 3 3 3 3 3 4 4 3 2 1 2 1 1 1 2 3 2 2 1 1 1 1 2
5 4 4 3 4 5 5 6 6 6 5 5 5 5 5 5 5 4 4 3 3 3 3 3 3 3 4 4 3 2 2 2 2 2 2 2 2 2 1 2 2 2 3
4 4 3 3 3 5 5 5 5 5 5 5 5 5 5 5 5 5 4 4 4 4 3 3 3 3 4 4 4 3 2 2 2 1 1 2 3 2 2 2 3 4 4
3 3 3 3 3 4 4 4 4 4 5 5 5 5 5 4 4 6 5 5 4 4 4 4 4 3 3 3 4 4 2 2 1 0 1 1 3 3 3 5 5 4 3
3 2 3 3 3 3 3 3 3 4 5 5 5 5 5 5 4 3 4 4 4 4 4 3 3 3 3 3 3 3 2 2 2 1 2 3 5 5 4 4 4 3 3
3 2 2 2 2 2 2 2 3 5 5 5 5 5 5 5 4 4 2 3 2 3 3 3 3 3 3 3 4 2 2 2 1 1 2 2 2 3 3 3 3 3 3
2 2 1 2 1 1 2 2 3 5 5 5 5 5 5 5 5 4 3 3 2 4 4 3 2 2 4 6 6 4 3 2 3 2 3 3 3 3 3 3 2 2 2
Wind_Direction
158 154 156 151 147 144 143 142 145 139 140 133 145 147 143 135 129 131 124 119 114 121 124 111 128 131 125 122 122 132 150 163 135 110 98 101 139 136 118 125 124 126 131
160 157 161 160 156 152 151 150 154 151 155 148 141 135 119 116 119 101 98 104 109 114 131 123 119 127 122 117 132 147 161 179 155 155 156 138 127 79 138 130 134 124 116
166 163 164 166 161 159 160 162 159 158 161 158 156 142 126 109 96 107 111 104 102 97 74 89 90 89 113 143 172 176 190 212 196 176 190 178 158 138 81 109 90 84 87
166 165 166 167 165 161 160 154 154 156 152 155 163 165 149 143 133 137 135 130 120 118 120 115 115 109 94 136 188 160 210 198 228 223 231 175 135 144 128 74 82 102 99
167 168 168 166 164 159 155 155 153 154 154 163 169 163 156 150 142 139 139 132 125 136 136 129 134 133 146 136 108 109 164 220 239 261 267 105 137 137 146 148 171 131 113
166 163 160 157 159 156 153 152 149 156 160 167 167 163 162 150 133 141 145 152 153 155 154 150 144 144 155 156 149 168 190 213 324 330 339 307 153 164 155 164 180 164 157
162 160 158 158 160 157 153 151 152 157 164 168 172 170 167 169 171 171 168 172 155 133 142 131 125 135 163 175 172 173 192 202 212 236 241 5 25 175 150 149 169 149 173
159 160 161 161 161 162 158 155 155 160 167 168 165 171 172 184 175 168 174 147 128 104 117 121 130 140 172 186 158 167 178 156 203 230 170 171 206 201 166 162 160 156 166
161 163 163 162 162 165 164 160 156 161 167 170 165 169 157 158 153 143 155 151 146 137 117 124 131 140 157 153 152 161 143 123 169 172 178 181 198 202 221 191 189 181 178
159 160 160 158 162 162 161 161 160 163 167 173 177 170 163 165 162 162 135 115 104 99 104 113 113 125 142 142 151 145 132 145 139 126 62 36 278 241 220 163 201 190 173
160 158 160 162 166 167 165 165 161 161 169 173 165 161 161 164 166 172 163 146 138 134 139 134 133 146 156 164 156 151 143 143 129 155 137 136 75 345 291 14 44 78 113
156 156 157 159 165 170 166 165 164 165 167 163 161 165 165 168 170 169 156 144 153 153 143 139 142 146 118 107 124 130 122 129 129 116 101 107 94 90 311 339 7 37 107
153 150 150 152 157 162 160 162 165 167 166 165 165 169 170 167 165 159 150 149 149 144 132 121 114 101 99 105 107 109 112 109 100 84 77 34 34 12 22 192 250 231 150
146 146 143 146 149 151 150 158 166 163 164 165 165 165 164 160 159 157 153 147 139 130 128 135 133 122 108 90 84 108 118 98 90 85 79 54 41 5 320 22 287 220 200
151 143 141 145 151 155 156 159 160 156 157 157 156 155 152 150 149 148 140 137 142 139 126 126 124 130 124 80 54 181 165 154 152 110 88 77 71 59 39 21 30 38 48
151 147 145 145 154 158 161 158 156 154 153 157 157 157 156 153 149 145 143 141 133 125 129 128 103 89 76 55 43 26 57 139 142 135 138 138 118 90 71 56 43 38 59
146 146 150 153 158 162 159 159 156 151 152 153 154 155 156 154 154 156 147 146 136 131 133 117 109 98 76 49 38 19 315 190 132 156 218 227 102 99 92 79 49 30 58
136 136 148 164 171 168 160 158 155 154 157 160 161 158 157 156 155 150 147 148 145 147 141 133 124 126 119 72 42 355 288 190 137 125 90 85 82 39 23 44 67 27 351
114 131 151 154 147 153 151 150 156 158 164 167 162 159 158 156 159 159 162 164 161 159 165 164 159 152 150 165 85 350 278 182 175 145 103 125 113 63 16 217 173 236 303
96 105 118 125 127 131 138 150 160 163 170 166 161 158 160 160 166 168 170 170 170 176 178 173 181 172 166 181 184 276 269 220 186 161 130 99 116 103 43 292 263 264 285
88 89 104 125 139 140 142 152 159 166 165 158 157 161 162 164 168 164 162 166 179 189 194 189 185 174 160 167 186 205 258 270 232 192 156 142 142 161 253 265 266 262 279
97 102 111 122 136 146 153 160 168 162 157 159 162 163 165 177 174 165 174 187 192 198 199 196 192 178 164 169 181 190 223 287 282 260 141 157 182 211 249 248 254 273 284
95 115 123 119 122 139 156 167 167 157 158 160 162 162 165 173 177 178 184 196 195 204 203 199 199 184 169 162 173 191 219 254 262 319 98 211 231 246 250 236 240 255 262
81 96 112 114 124 134 150 168 162 157 159 164 163 165 171 175 173 182 190 196 194 203 206 204 202 184 167 168 178 189 198 204 210 223 216 229 237 245 251 247 238 234 246
63 73 86 105 120 131 151 168 169 167 171 171 169 179 184 175 175 178 188 206 182 202 200 207 199 185 177 163 157 181 202 206 198 202 228 231 225 230 232 231 226 228 224
53 75 103 117 124 148 173 175 173 174 176 179 179 188 192 179 179 174 160 67 100 114 114 107 123 116 131 147 146 149 158 173 166 192 228 230 230 230 227 228 223 222 227